Content
SEND FEEDBACK

Daily
Averages
Monthly
Summary
United States of America

PLACERVILLE, CALIFORNIA


Home > North America > United States > California
Elevation: 2590 feet     Latitude: 38 43N     Longitude: 120 45W

WEATHER
 
SELECT A DAY
Number of Records: 94,511;   Date Range: 7/10/09 - 8/27/14
 
SHARE

PRINT THIS DATA

[ ← Previous Day ]
WEATHER ALMANAC - APRIL 23, 2013
[ Next Day → ]
[ °C ]   °F
Weather ElementAverageHighLow
Temperature65.8 °F75.2 °F (3:15 pm)57.2 °F (4:35 am)
Dewpoint25.4 °F35.6 °F (12:55 pm)10.4 °F (6:15 am)
Humidity22.1 %36 % (11:55 pm)15 % (7:15 am)
Barometer29.95 in29.98 in (10:55 am)29.92 in (3:55 am)
Wind Speed8.8 mph23 mph (1:55 am)
Wind Gust29.9 mph (1:55 am)
Weather ElementAverage
Visibility10 mi
Wind DirectionSSE (154.4 °)

Weather ElementTotal
Precipitation---
Cooling Degree Days1.2 (Base 65)
Growing Degree Days16.2 (Base 50)
Averaged from 71 records on April 23, 2013
WEATHER CONDITIONS BREAKOUT
WIND DIRECTION BREAKOUT
WEATHER BY HOUR - APRIL 23, 2013
[ °C ]   °F
Local TimeTemperatureDewpointHumidityBarometerVisibilityWind DirectionWind SpeedGust SpeedPrecipitationEventsConditions
12:35 AM64.4 °F24.8 °F22 %29.94 in10.0 miEast (80°)17.3 mph20.7 mphMostly Cloudy
12:55 AM64.4 °F24.8 °F22 %29.94 in10.0 miEast (80°)15.0 mph25.3 mphMostly Cloudy
1:15 AM64.4 °F23.0 °F21 %29.94 in10.0 miEast (80°)16.1 mph24.2 mphScattered Clouds
1:35 AM62.6 °F23.0 °F22 %29.94 in10.0 miEast (80°)19.6 mph26.5 mphScattered Clouds
1:55 AM62.6 °F21.2 °F20 %29.94 in10.0 miENE (70°)23.0 mph29.9 mphMostly Cloudy
2:15 AM62.6 °F21.2 °F20 %29.94 in10.0 miEast (80°)18.4 mph24.2 mphMostly Cloudy
2:35 AM62.6 °F19.4 °F19 %29.93 in10.0 miEast (80°)17.3 mph24.2 mphPartly Cloudy
2:55 AM60.8 °F19.4 °F20 %29.93 in10.0 miEast (80°)19.6 mph24.2 mphPartly Cloudy
3:15 AM59.0 °F19.4 °F22 %29.93 in10.0 miEast (90°)17.3 mph23.0 mphClear
3:35 AM59.0 °F17.6 °F20 %29.93 in10.0 miEast (80°)17.3 mph25.3 mphPartly Cloudy
3:55 AM59.0 °F17.6 °F20 %29.92 in10.0 miEast (80°)18.4 mph25.3 mphPartly Cloudy
4:15 AM59.0 °F15.8 °F19 %29.92 in10.0 miEast (80°)15.0 mph21.9 mphClear
4:35 AM57.2 °F15.8 °F20 %29.92 in10.0 miEast (90°)11.5 mph18.4 mphClear
4:55 AM57.2 °F14.0 °F18 %29.92 in10.0 miEast (100°)11.5 mph19.6 mphClear
5:15 AM57.2 °F14.0 °F18 %29.92 in10.0 miEast (90°)11.5 mph16.1 mphClear
5:35 AM57.2 °F14.0 °F18 %29.92 in10.0 miEast (90°)15.0 mph20.7 mphClear
5:55 AM57.2 °F12.2 °F17 %29.92 in10.0 miEast (80°)15.0 mph19.6 mphClear
6:15 AM57.2 °F10.4 °F16 %29.92 in10.0 miEast (80°)15.0 mph19.6 mphClear
6:35 AM57.2 °F10.4 °F16 %29.93 in10.0 miEast (80°)17.3 mph25.3 mphClear
6:55 AM57.2 °F10.4 °F16 %29.92 in10.0 miEast (90°)12.7 mphClear
7:15 AM59.0 °F10.4 °F15 %29.94 in10.0 miEast (80°)11.5 mphClear
7:35 AM59.0 °F12.2 °F16 %29.94 in10.0 miEast (80°)16.1 mphClear
7:55 AM59.0 °F15.8 °F19 %29.94 in10.0 miEast (80°)12.7 mphClear
8:15 AM62.6 °F17.6 °F18 %29.95 in10.0 miEast (100°)8.1 mphClear
8:35 AM64.4 °F19.4 °F18 %29.95 in10.0 miEast (100°)10.4 mphClear
8:55 AM66.2 °F17.6 °F15 %29.95 in10.0 miESE (120°)10.4 mph17.3 mphClear
9:15 AM66.2 °F19.4 °F17 %29.96 in10.0 miESE (120°)9.2 mphClear
9:35 AM68.0 °F19.4 °F16 %29.96 in10.0 miSE (130°)5.8 mphClear
9:55 AM69.8 °F23.0 °F17 %29.96 in10.0 miSSE (150°)3.5 mphClear
10:15 AM69.8 °F30.2 °F23 %29.97 in10.0 miWSW (240°)4.6 mphClear
10:35 AM69.8 °F30.2 °F23 %29.97 in10.0 miWest (270°)5.8 mphClear
10:55 AM71.6 °F32.0 °F23 %29.98 in10.0 miWest (270°)4.6 mphClear
11:15 AM71.6 °F30.2 °F22 %29.98 in10.0 miWNW (290°)4.6 mphClear
11:35 AM71.6 °F28.4 °F20 %29.98 in10.0 miWest (270°)4.6 mphClear
11:55 AM71.6 °F26.6 °F19 %29.98 in10.0 miWest (280°)8.1 mphClear
12:15 PM71.6 °F32.0 °F23 %29.98 in10.0 miWest (260°)6.9 mphClear
12:35 PM71.6 °F32.0 °F23 %29.98 in10.0 miWSW (240°)6.9 mphClear
12:55 PM71.6 °F35.6 °F27 %29.97 in10.0 miSW (230°)5.8 mphClear
1:15 PM73.4 °F35.6 °F25 %29.97 in10.0 miWSW (240°)5.8 mphClear
1:35 PM73.4 °F35.6 °F25 %29.97 in10.0 miWest (260°)10.4 mphClear
1:55 PM73.4 °F32.0 °F22 %29.97 in10.0 miSW (230°)6.9 mphClear
2:15 PM73.4 °F35.6 °F25 %29.97 in10.0 miWSW (240°)6.9 mphClear
2:35 PM73.4 °F35.6 °F25 %29.97 in10.0 miWSW (240°)8.1 mphClear
2:55 PM73.4 °F32.0 °F22 %29.97 in10.0 miSW (220°)5.8 mphClear
3:15 PM75.2 °F32.0 °F21 %29.96 in10.0 miSW (230°)8.1 mphClear
3:35 PM73.4 °F32.0 °F22 %29.96 in10.0 miSW (220°)8.1 mphClear
3:55 PM73.4 °F32.0 °F22 %29.96 in10.0 miWSW (240°)6.9 mphClear
4:15 PM73.4 °F32.0 °F22 %29.95 in10.0 miWSW (250°)6.9 mphClear
4:35 PM73.4 °F30.2 °F20 %29.95 in10.0 miSSW (210°)4.6 mphClear
4:55 PM73.4 °F30.2 °F20 %29.95 in10.0 miWest (260°)5.8 mphClear
5:15 PM71.6 °F30.2 °F22 %29.94 in10.0 miSouth (180°)3.5 mphClear
5:35 PM71.6 °F32.0 °F23 %29.94 in10.0 miWSW (250°)4.6 mphClear
5:55 PM71.6 °F30.2 °F22 %29.94 in10.0 miWSW (250°)4.6 mphClear
6:15 PM71.6 °F32.0 °F23 %29.94 in10.0 miWSW (240°)3.5 mphClear
6:35 PM69.8 °F32.0 °F25 %29.94 in10.0 miWSW (240°)4.6 mphClear
6:55 PM68.0 °F30.2 °F24 %29.94 in10.0 miWSW (240°)3.5 mphClear
7:15 PM68.0 °F30.2 °F24 %29.93 in10.0 miWSW (240°)3.5 mphClear
7:35 PM66.2 °F28.4 °F24 %29.93 in10.0 miSW (230°)4.6 mphClear
7:55 PM66.2 °F28.4 °F24 %29.93 in10.0 miWSW (240°)3.5 mphClear
8:15 PM66.2 °F28.4 °F24 %29.93 in10.0 miWest (260°)3.5 mphClear
8:35 PM66.2 °F26.6 °F23 %29.94 in10.0 miCalmClear
8:55 PM66.2 °F26.6 °F23 %29.94 in10.0 miCalmClear
9:15 PM64.4 °F28.4 °F26 %29.94 in10.0 miCalmClear
9:35 PM62.6 °F30.2 °F30 %29.94 in10.0 miEast (90°)4.6 mphClear
9:55 PM62.6 °F30.2 °F30 %29.94 in10.0 miEast (90°)5.8 mphClear
10:15 PM62.6 °F28.4 °F27 %29.94 in10.0 miEast (80°)5.8 mphClear
10:35 PM60.8 °F32.0 °F34 %29.94 in10.0 miEast (90°)4.6 mphClear
10:55 PM62.6 °F28.4 °F27 %29.94 in10.0 miESE (120°)3.5 mphClear
11:15 PM59.0 °F30.2 °F34 %29.93 in10.0 miEast (100°)5.8 mphClear
11:35 PM60.8 °F30.2 °F31 %29.93 in10.0 miESE (110°)5.8 mphClear
11:55 PM59.0 °F32.0 °F36 %29.94 in10.0 miEast (100°)3.5 mphClear
Hourly data recorded from KPVF, located miles away from Placerville, California







STORIES FROM OUR PARTNERS